Location: Brightwaters
(40.7209°N, 73.2673°W)
Time: 08:50:27
(UTC+00:00)

Daily predictions for brighter satellites

Satellite Brightness Start Highest point End
(mag) Time Altitude Azimuth Time Altitude Azimuth Time Altitude Azimuth
USA 267 4.0 21:45:40 10° NE 21:51:51 46° NNW 21:58:00 10° WSW
Cosmos 1842 Rocket 3.8 21:52:15 10° SSE 21:56:32 51° E 22:00:52 10° NNE
Meteor PRIRODA 3.6 21:53:13 10° SSE 21:56:53 87° ENE 22:00:32 10° NNW
Cosmos 1513 Rocket 4.5 21:51:01 10° S 21:57:04 80° E 22:03:15 10° N
Cosmos 1606 2.6 21:58:34 10° S 22:02:19 87° E 22:06:06 10° N
CORIOLIS 4.3 21:57:41 10° SE 22:02:52 51° ENE 22:08:05 10° N
Cosmos 1939 Rocket 3.0 21:59:02 10° SSE 22:03:05 58° ENE 22:07:08 10° N
USA 307 4.5 21:59:48 10° W 22:03:26 26° NNW 22:07:05 10° NNE
SL-08 R/B 4.2 21:59:36 10° N 22:04:12 50° WNW 22:08:41 10° SW
Cosmos 1862 3.8 22:02:00 10° NNW 22:05:57 65° W 22:09:54 10° S
Cosmos 2034 Rocket 4.0 22:01:31 10° S 22:07:33 59° E 22:13:35 10° NNE
Cosmos 1766 Rocket 4.4 22:07:05 10° NNW 22:11:21 55° W 22:15:36 10° S
Cosmos 1833 Rocket 3.4 22:06:27 10° SSE 22:11:24 33° ESE 22:16:23 10° NE
SMAP 3.0 22:06:56 10° SSE 22:11:32 68° ENE 22:16:10 10° N
ATLAS CENTAUR R/B 3.6 22:08:56 10° W 22:12:02 20° NW 22:15:18 10° N
Cosmos 2221 2.6 22:10:55 10° S 22:15:10 84° W 22:19:29 10° N
CZ-4B R/B 3.8 22:13:04 10° SE 22:17:51 32° ENE 22:22:35 10° N
H-2A R/B 2.4 22:15:01 10° SE 22:19:55 42° ENE 22:24:44 10° N
ARGOS 4.0 22:16:35 10° ESE 22:21:03 27° ENE 22:25:32 10° N
Cosmos 1898 Rocket 4.2 22:17:27 10° N 22:22:04 30° ENE 22:26:36 10° ESE
ISS -1.4 22:20:24 10° NNW 22:22:05 13° N 22:23:48 10° NNE
USA 234 3.4 22:17:12 10° SE 22:23:46 83° SW 22:30:20 10° NW
Cosmos 44 3.4 22:19:54 10° NNW 22:24:31 47° NE 22:28:51 10° SE
Cosmos 468 Rocket 4.2 22:20:07 10° S 22:25:03 51° ESE 22:30:04 10° NNE
NOSS 3-1 (A) 4.4 22:18:14 10° NNW 22:25:24 45° NE 22:33:39 10° ESE
deb Chang Zheng 4 4.3 22:21:57 10° SE 22:25:39 29° ENE 22:29:23 10° N
COSMO-SKYMED 1 3.3 22:21:49 10° NNE 22:25:43 31° E 22:29:34 10° SSE
NOSS 3-1 (C) 4.1 22:20:59 10° NNW 22:28:35 68° NE 22:37:23 10° SE
Okean O Rocket 2.4 22:27:49 10° SE 22:31:37 28° ENE 22:35:25 10° N
COSMOS 2455 3.8 22:27:08 10° SSE 22:32:05 27° ESE 22:35:27 17° ENE
Cosmos 540 Rocket 4.1 22:28:16 10° SSE 22:32:50 34° E 22:36:38 14° NE
Cosmos 1634 Rocket 4.3 22:27:01 10° SSE 22:32:55 44° E 22:38:51 10° NNE
CZ-2C R/B 2.7 22:39:43 10° NNE 22:44:50 53° E 22:49:51 10° S
Cosmos 1782 3.1 22:43:05 10° SSE 22:46:52 42° E 22:49:29 18° NNE
Cosmos 2084 4.2 22:44:16 10° NNW 22:48:10 32° NE 22:49:31 27° E
Cosmos 2026 Rocket 4.0 22:44:03 10° N 22:50:06 57° E 22:56:03 10° SSE
Cosmos 2195 Rocket 4.4 22:46:09 10° N 22:52:18 71° E 22:58:28 10° SSE
Meteor 1-25 Rocket 4.1 22:46:47 10° N 22:52:22 75° E 22:57:57 10° SSE
MOS 1-B Rocket 4.0 22:48:39 10° NNE 22:54:29 84° ESE 23:01:03 10° SSW
Cosmos 1743 Rocket 3.6 22:50:17 10° N 22:54:37 80° W 22:58:56 10° S
USA 276 3.4 22:53:54 10° NW 22:56:20 26° NNE 22:56:20 26° NNE
Cosmos 1812 3.7 22:53:35 10° SSE 22:56:17 28° ESE 22:56:17 28° ESE
Meteor 2-21 4.4 22:54:18 10° N 23:00:22 62° E 23:06:19 10° SSE
MOS 1-B 4.4 22:54:44 10° SSE 23:00:31 83° WSW 23:06:20 10° NNW
Cosmos 1340 Rocket 3.6 22:56:56 10° NNW 23:00:54 54° W 23:04:51 10° S
GEOS 3 Rocket 3.8 23:00:22 22° ESE 23:03:26 48° NE 23:08:25 10° NNW
CZ-4C R/B 3.8 22:57:41 10° NNW 23:03:40 28° NE 23:05:29 25° ENE
Cosmos 1763 Rocket 3.8 23:01:20 10° SSW 23:06:20 63° WNW 23:11:24 10° NNE
Cosmos 2369 4.1 23:01:06 10° N 23:06:30 40° ENE 23:08:35 30° ESE
Lacrosse 5 4.4 23:03:34 10° WNW 23:07:26 22° WSW 23:11:17 10° S
Cosmos 841 Rocket 3.5 23:03:05 10° S 23:08:08 57° ESE 23:10:34 29° NE
Cosmos 1602 3.6 23:05:40 10° N 23:09:31 87° W 23:13:22 10° S
Cosmos 1937 Rocket 3.5 23:04:30 10° N 23:09:45 56° ENE 23:14:57 10° SE
Cosmos 1933 3.9 23:06:08 10° SSW 23:10:08 59° W 23:14:09 10° N
Cosmos 1151 Rocket 3.2 23:07:40 10° SSE 23:11:37 45° E 23:11:37 45° E
SKYMED 2 3.7 23:09:31 10° N 23:13:52 74° WNW 23:18:10 10° SSW
Cosmos 1697 Rocket 2.6 23:08:34 10° NNW 23:14:11 69° ENE 23:19:46 10° SSE
Cosmos 1980 Rocket 2.6 23:10:58 10° N 23:16:12 37° ENE 23:16:12 37° ENE
Cosmos 1656 4.4 23:13:40 10° NNW 23:19:02 53° WSW 23:24:28 10° S
Cosmos 2082 Rocket 2.2 23:16:55 10° S 23:22:30 61° ESE 23:24:16 41° NE
Meteor 2-14 Rocket 4.5 23:21:56 10° N 23:28:03 79° W 23:34:06 10° S
COSMOS 2406 3.4 23:22:55 10° SSW 23:28:40 73° WNW 23:32:20 23° NNE
Meteor 2-6 Rocket 4.3 23:25:45 10° S 23:31:24 55° E 23:32:06 52° ENE
Cosmos 372 Rocket 4.1 23:30:50 10° NNW 23:35:24 56° NE 23:35:24 56° NE
Feng Yun 1-1 Rocket 4.2 23:30:51 10° SSE 23:36:46 81° ENE 23:42:42 10° NNW
Cosmos 1570 Rocket 4.3 23:31:54 10° S 23:36:13 49° SE 23:36:13 49° SE
GPS 2-04 Rocket1 3.8 23:33:27 10° WSW 23:36:51 36° S 23:36:51 36° S
Cosmos 858 Rocket 4.4 23:34:08 10° NNW 23:39:27 87° WSW 23:44:23 12° SSE
Meteor 2-21 Rocket 4.5 23:38:30 10° N 23:44:38 79° W 23:50:41 10° S
Sich 1 4.1 23:42:13 10° NNW 23:46:16 42° W 23:50:20 10° SSW
Meteor 2-8 Rocket 4.3 23:42:42 10° S 23:48:49 80° E 23:51:12 40° NNE
